Погода в Советске

Россия / Кировская область     57°35′15″N   48°57′34″E
темп.,
°C
ветер,
м/с
пор.,
м/с
влажн.,
%
обл.,
%
осадки,
мм/ч
давл.,
гПа
погр.,
м
10 апреля, сб
сб1000:000з1191100 0.0 102810
03:000с11885 0.0 102910
06:00−5в1197100 0.0 103116
09:00+1вюв239994 0.0 1032162
12:00+2вюв3499100 0.0 1031274
15:00+3вюв2494100 0.0 1031417
18:00+1в3599100 0.1 1029165
21:00+1св2499100 0.1 1028136
11 апреля, вс
вс1100:00+1св11100100 0.0 102732
03:00+1с12100100 0.0 102745
06:00+1ссз2599100 0.0 1028184
09:00+2сз239687 0.0 1029231
12:00+6зсз237048 0.0 1030506
15:00+7зюз2365100 0.0 1031479
18:00+3юз2285100 0.0 103319
21:00+2юз118399 0.0 103410
12 апреля, пн
пн1200:00+2зюз1183100 0.0 103510
03:00+2св1183100 0.0 103710
06:00+3вюв2284100 0.0 103717
09:00+7вюв3476100 0.0 1038207
12:00+10вюв3568100 0.0 1037511
15:00+11вюв3466100 0.0 1037672
18:00+8вюв3686100 0.0 1036144
21:00+5вюв379297 0.0 1036130
13 апреля, вт
вт1300:00+4вюв389198 0.0 1036155
03:00+4юв3792100 0.0 1035150
06:00+4юв3795100 0.0 1034151
09:00+9ююв4682100 0.0 1033276
12:00+15ю566677 0.0 1031632
15:00+17ю575919 0.0 10291065
18:00+13ю3674100 0.0 1028118
21:00+10ю488499 0.0 1029127
14 апреля, ср
ср1400:00+7ююз387780 0.0 1028139
03:00+6ююз368184 0.0 102883
06:00+6ююз23815 0.0 102849
09:00+12ююз34585 0.0 1027290
12:00+17ююз454424 0.0 1026842
15:00+18юз453996 0.0 10251247
18:00+15ю3356100 0.0 102442
21:00+11ю356694 0.0 102472